Location: Unspecified
(51.5147°N, 7.4673°E)
Time: 03:55:03
(UTC+01:00)

A-11 Canister half - Pass Details

Date: 17 February 2026
Orbit: 1512 x 1687 km, 47.2° (Epoch: 7 March)

Event Time Altitude Azimuth Distance (km) Brightness Sun altitude
Rises 00:16:29 0° 259° (WSW) 4,925 - -50.2°
Reaches altitude 10° 00:19:41 10° 257° (WSW) 3,924 - -50.2°
Maximum altitude 00:29:38 70° 177° (S) 1,721 - -50.4°
Drops below altitude 10° 00:39:15 10° 96° (E) 3,797 - -50.5°
Sets 00:42:18 0° 95° (E) 4,759 - -50.5°
